This demonstration page uses our WeatherBlox Daily Observations layout. Learn more.

Left ArrowRight Arrow

34.02893, -84.19858

Hourly Observations for October 29, 2019

Temp ( °F °C ) Dew Point ( °F °C ) Humidity (%) Winds ( mph kmh ) Pressure ( in mb ) Visibility ( mi km ) Precip ( " mm )
12:53 am 00:53 Clear 53 11.7 53 11.7 100 100 Calm 30.10 1019 10 16 0.00 0.00
1:53 am 01:53 Clear with Mist and Fog 53 11.7 51 10.6 93 93 Calm 30.09 1019 5 8 0.00 0.00
2:53 am 02:53 Clear 53 11.7 52 11.1 96 96 Calm 30.09 1019 10 16 0.00 0.00
3:53 am 03:53 Clear 52 11.1 51 10.6 97 97 Calm 30.09 1019 10 16 0.00 0.00
4:53 am 04:53 Partly Cloudy 53 11.7 52 11.1 96 96 Calm 30.09 1019 10 16 0.00 0.00
5:53 am 05:53 Partly Cloudy 58 14.4 55 12.8 90 90 Calm 30.09 1019 10 16 0.00 0.00
6:53 am 06:53 Cloudy 59 15 55 12.8 87 87 N 5 7 30.11 1020 10 16 0.00 0.00
7:53 am 07:53 Cloudy 59 15 56 13.3 90 90 ENE 3 6 30.11 1020 10 16 0.00 0.00
8:53 am 08:53 Partly Cloudy 60 15.6 57 13.9 90 90 Calm 30.14 1021 10 16 0.00 0.00
9:53 am 09:53 Mostly Cloudy 63 17.2 57 13.9 81 81 Calm 30.16 1021 10 16 0.00 0.00
10:53 am 10:53 Cloudy 65 18.3 57 13.9 76 76 E 5 7 30.17 1022 10 16 0.00 0.00
11:53 am 11:53 Cloudy 67 19.4 58 14.4 73 73 VRB 3 6 30.17 1022 10 16 0.00 0.00
12:53 pm 12:53 Cloudy 69 20.6 57 13.9 66 66 SE 6 9 30.16 1021 10 16 0.00 0.00
1:53 pm 13:53 Mostly Cloudy 71 21.7 58 14.4 63 63 SSE 6 9 30.14 1021 10 16 0.00 0.00
2:53 pm 14:53 Mostly Cloudy 72 22.2 58 14.4 61 61 Calm 30.12 1020 10 16 0.00 0.00
3:53 pm 15:53 Cloudy 71 21.7 59 15 66 66 Calm 30.13 1020 10 16 0.00 0.00
4:53 pm 16:53 Sunny 69 20.6 60 15.6 73 73 VRB 3 6 30.13 1020 10 16 0.00 0.00
5:53 pm 17:53 Mostly Sunny 68 20 61 16.1 78 78 Calm 30.14 1021 10 16 0.00 0.00
6:07 pm 18:07 Mostly Cloudy 68 20 62 16.7 81 81 VRB 5 7 30.13 1020 10 16 0.00 0.00
6:53 pm 18:53 Cloudy 67 19.4 62 16.7 84 84 VRB 3 6 30.14 1021 10 16 0.00 0.00
7:53 pm 19:53 Cloudy 66 18.9 62 16.7 87 87 VRB 5 7 30.14 1021 10 16 0.00 0.00
8:53 pm 20:53 Cloudy 66 18.9 62 16.7 87 87 VRB 3 6 30.14 1021 10 16 0.00 0.00
9:09 pm 21:09 Cloudy 66 18.9 62 16.7 87 87 undefined N/A 30.14 1021 10 16 0.00 0.00
9:44 pm 21:44 Cloudy 65 18.3 62 16.7 90 90 E 5 7 30.15 1021 10 16 0.00 0.00
9:53 pm 21:53 Cloudy 65 18.3 62 16.7 90 90 Calm 30.15 1021 8 13 0.00 0.00
10:31 pm 22:31 Cloudy with Mist and Fog 64 17.8 63 17.2 96 96 ENE 3 6 30.16 1021 2 3 0.00 0.00
10:53 pm 22:53 Cloudy with Mist and Fog 64 17.8 64 17.8 100 100 Calm 30.15 1021 2 3 0.00 0.00
11:03 pm 23:03 Cloudy with Mist and Fog 64 17.8 64 17.8 100 100 E 5 7 30.16 1021 2 3 0.00 0.00
11:28 pm 23:28 Cloudy with Light Rain 64 17.8 64 17.8 100 100 E 3 6 30.15 1021 3 5 0.01 0.25
11:46 pm 23:46 Cloudy with Light Rain 64 17.8 64 17.8 100 100 VRB 3 6 30.15 1021 2 3 0.01 0.25
11:53 pm 23:53 Cloudy with Light Rain 64 17.8 64 17.8 100 100 VRB 5 7 30.15 1021 2 3 0.02 0.51

Powered by AerisWeather